Pine Bluff, AR

8:51 AM CDT on August 18, 2017 (GMT -0500)
Grider

Weather History for KPBF - November, 2011

Change the Weather History Date:

Tuesday, November 22, 2011

  Actual Average Record
Temperature  
Mean Temperature 60 °F 51 °F  
Max Temperature 69 °F 61 °F 80 °F (1931)
Min Temperature 51 °F 41 °F 20 °F (1964)
Degree Days  
Heating Degree Days 5 14  
Month to date heating degree days 170 240  
Since 1 July heating degree days 318 377  
Cooling Degree Days 0 0  
Month to date cooling degree days 33 10  
Year to date cooling degree days 2503 2129  
Growing Degree Days 10 (Base 50)    
Moisture  
Dew Point 61 °F    
Average Humidity 83    
Maximum Humidity 93    
Minimum Humidity 72    
Precipitation  
Precipitation 1.50 in 0.16 in 5.24 in (1961)
Month to date precipitation 5.06 3.45  
Year to date precipitation 38.85 44.33  
Snow  
Snow 0.00 in 0.00 in 5.00 in (1929)
Month to date snowfall 0.0 0.0  
Since 1 July snowfall 0.0 0.0  
Since 1 September snowfall 0.0 0.0  
Snow Depth 0.00 in    
Sea Level Pressure  
Sea Level Pressure 29.92 in    
Wind  
Wind Speed 10 mph (SW)    
Max Wind Speed 29 mph    
Max Gust Speed 37 mph    
Visibility 8 miles    
Events Rain , Thunderstorm    
T = Trace of Precipitation, MM = Missing Value Source: NWS Daily Summary

Daily Weather History Graph

Daily Weather History Graph

Search for Another Location

Airport or City:

Trip Planner

Search our weather history database for the weather conditions in past years. The results will help you decide how hot, cold, wet, or windy it might be!

Date:

Astronomy

Nov. 22, 2011 Rise Set
Actual Time 6:46 AM CST 5:00 PM CST
Civil Twilight 6:19 AM CST 5:27 PM CST
Nautical Twilight 5:49 AM CST 5:57 PM CST
Astronomical Twilight 5:19 AM CST 6:27 PM CST
Moon 3:43 AM CST (11/22) 2:55 PM CST (11/22)
Length of Visible Light 11h 07m
Length of Day
10h 13m
Waning Crescent, 9% of the Moon is Illuminated
Nov 22
Waning Crescent
Nov 25
New
Dec 2
First Quarter
Dec 10
Full
Dec 17
Last Quarter

Hourly Weather History & Observations

Time (CST) Temp. Dew Point Humidity Pressure Visibility Wind Dir Wind Speed Gust Speed Precip Events Conditions
12:53 AM 68.0 °F 64.0 °F 87% 29.89 in 10.0 mi SSE 19.6 mph 24.2 mph 0.00 in Rain , Thunderstorm Light Rain
1:14 AM 69.8 °F 64.4 °F 83% 29.88 in 10.0 mi South 18.4 mph 29.9 mph 0.00 in   Partly Cloudy
1:22 AM 69.8 °F 64.4 °F 83% 29.87 in 10.0 mi South 20.7 mph - 0.00 in Thunderstorm Mostly Cloudy
1:37 AM 69.8 °F 64.4 °F 83% 29.85 in 10.0 mi South 26.5 mph 34.5 mph 0.00 in Rain Light Rain
1:49 AM 69.8 °F 64.4 °F 83% 29.85 in 9.0 mi South 25.3 mph 34.5 mph 0.02 in Rain , Thunderstorm Light Rain
1:53 AM 69.1 °F 64.9 °F 87% 29.86 in 9.0 mi South 28.8 mph 36.8 mph 0.02 in Rain , Thunderstorm Light Rain
2:04 AM 69.8 °F 64.4 °F 83% 29.87 in 10.0 mi South 21.9 mph 34.5 mph 0.00 in Rain Light Rain
2:19 AM 69.8 °F 64.4 °F 83% 29.89 in 10.0 mi SSW 18.4 mph 29.9 mph 0.00 in Rain , Thunderstorm Light Rain
2:28 AM 68.0 °F 64.4 °F 88% 29.90 in 10.0 mi SSW 17.3 mph 23.0 mph 0.00 in Rain Light Rain
2:48 AM 66.2 °F 64.4 °F 94% 29.95 in 1.8 mi WNW 15.0 mph - 0.22 in Rain Heavy Rain
2:53 AM 66.0 °F 64.0 °F 93% 29.94 in 1.2 mi WSW 12.7 mph 20.7 mph 0.35 in Rain Heavy Rain
3:02 AM 66.2 °F 64.4 °F 94% 29.92 in 2.0 mi SW 16.1 mph 21.9 mph 0.12 in Rain , Thunderstorm Heavy Rain
3:06 AM 66.2 °F 64.4 °F 94% 29.93 in 3.0 mi SW 16.1 mph 23.0 mph 0.15 in Rain , Thunderstorm Heavy Rain
3:12 AM 66.2 °F 64.4 °F 94% 29.91 in 2.5 mi SW 11.5 mph 23.0 mph 0.24 in Rain Heavy Rain
3:21 AM 64.4 °F 62.6 °F 94% 29.90 in 3.0 mi SW 13.8 mph - 0.30 in Rain , Thunderstorm Heavy Rain
3:38 AM 64.4 °F 62.6 °F 94% 29.88 in 5.0 mi South 12.7 mph - 0.36 in Rain Rain
3:53 AM 64.9 °F 63.0 °F 93% 29.89 in 5.0 mi SSW 13.8 mph - 0.42 in Rain , Thunderstorm Heavy Thunderstorms and Rain
4:12 AM 64.4 °F 62.6 °F 94% 29.90 in 4.0 mi South 12.7 mph - 0.13 in Rain Rain
4:26 AM 64.4 °F 62.6 °F 94% 29.91 in 3.0 mi SSW 13.8 mph - 0.23 in Rain , Thunderstorm Heavy Rain
4:39 AM 62.6 °F 62.6 °F 100% 29.90 in 2.5 mi South 12.7 mph - N/A Rain , Thunderstorm Heavy Thunderstorms and Rain
4:53 AM 63.0 °F 63.0 °F 100% 29.89 in 4.0 mi South 13.8 mph - 0.43 in Rain Rain
5:46 AM 62.6 °F 62.6 °F 100% 29.88 in 7.0 mi South 10.4 mph - 0.14 in Rain , Thunderstorm Rain
5:53 AM 64.0 °F 62.1 °F 93% 29.87 in 8.0 mi South 11.5 mph - 0.16 in Rain , Thunderstorm Rain
6:01 AM 64.4 °F 62.6 °F 94% 29.87 in 8.0 mi South 12.7 mph - N/A Rain Rain
6:53 AM 64.0 °F 62.1 °F 93% 29.80 in 9.0 mi SSE 23.0 mph 32.2 mph 0.07 in Rain Light Rain
7:53 AM 64.9 °F 62.1 °F 90% 29.84 in 10.0 mi South 8.1 mph - 0.01 in   Partly Cloudy
8:53 AM 64.9 °F 62.1 °F 90% 29.87 in 10.0 mi South 6.9 mph - N/A   Clear
9:14 AM 64.4 °F 62.6 °F 94% 29.89 in 10.0 mi WSW 3.5 mph - N/A   Mostly Cloudy
9:53 AM 64.9 °F 63.0 °F 93% 29.90 in 2.5 mi SW 3.5 mph - 0.00 in Rain Light Rain
9:57 AM 64.4 °F 62.6 °F 94% 29.90 in 1.8 mi SW 5.8 mph - 0.00 in Rain Light Rain
10:15 AM 64.4 °F 64.4 °F 100% 29.91 in 2.0 mi SW 3.5 mph - 0.02 in Rain Light Rain
10:49 AM 64.4 °F 62.6 °F 94% 29.92 in 4.0 mi WSW 6.9 mph - 0.03 in Rain Light Rain
10:53 AM 64.9 °F 63.0 °F 93% 29.91 in 7.0 mi WSW 5.8 mph - 0.03 in Rain Light Rain
11:53 AM 64.0 °F 63.0 °F 96% 29.90 in 7.0 mi WSW 5.8 mph - 0.00 in   Overcast
12:05 PM 64.4 °F 62.6 °F 94% 29.90 in 6.0 mi West 9.2 mph - 0.00 in Rain Light Rain
12:24 PM 62.6 °F 60.8 °F 94% 29.90 in 3.0 mi WNW 10.4 mph - 0.01 in Rain Light Rain
12:53 PM 63.0 °F 61.0 °F 93% 29.88 in 10.0 mi West 8.1 mph - 0.01 in   Overcast
1:05 PM 62.6 °F 60.8 °F 94% 29.89 in 10.0 mi West 8.1 mph - N/A   Overcast
1:23 PM 62.6 °F 60.8 °F 94% 29.89 in 10.0 mi West 6.9 mph - N/A   Overcast
1:37 PM 64.4 °F 62.6 °F 94% 29.88 in 10.0 mi WSW 6.9 mph - N/A   Overcast
1:53 PM 64.9 °F 61.0 °F 87% 29.89 in 10.0 mi WSW 6.9 mph - N/A   Overcast
2:04 PM 64.4 °F 60.8 °F 88% 29.90 in 10.0 mi WSW 8.1 mph - N/A   Overcast
2:11 PM 64.4 °F 60.8 °F 88% 29.90 in 10.0 mi West 5.8 mph - N/A   Overcast
2:21 PM 64.4 °F 60.8 °F 88% 29.90 in 10.0 mi West 8.1 mph - N/A   Overcast
2:53 PM 64.9 °F 59.0 °F 81% 29.91 in 10.0 mi WNW 8.1 mph - N/A   Overcast
3:24 PM 64.4 °F 55.4 °F 73% 29.92 in 10.0 mi West 9.2 mph - N/A   Overcast
3:53 PM 64.4 °F 55.4 °F 73% 29.94 in 10.0 mi NW 10.4 mph - N/A   Overcast
4:53 PM 61.0 °F 52.0 °F 72% 29.98 in 10.0 mi NW 10.4 mph - N/A   Partly Cloudy
5:53 PM 59.0 °F 51.8 °F 77% 30.01 in 10.0 mi WNW 6.9 mph - N/A   Partly Cloudy
6:53 PM 57.2 °F 50.0 °F 77% 30.05 in 10.0 mi WNW 8.1 mph - N/A   Partly Cloudy
7:53 PM 55.9 °F 50.0 °F 80% 30.08 in 10.0 mi WNW 6.9 mph - N/A   Clear
8:53 PM 55.0 °F 50.0 °F 83% 30.10 in 10.0 mi NW 9.2 mph - N/A   Partly Cloudy
9:53 PM 54.0 °F 50.0 °F 86% 30.13 in 10.0 mi WNW 6.9 mph - N/A   Clear
10:53 PM 52.0 °F 48.9 °F 89% 30.14 in 10.0 mi NW 5.8 mph - N/A   Clear
11:53 PM 51.1 °F 48.0 °F 89% 30.15 in 10.0 mi NW 3.5 mph - N/A   Clear